User: anonymous   Login
Location: D�derode
(51.8092°N, 10.1065°E)
Time: 00:12:07
(UTC+00:00)
Language:

CZ-4 R/B - Orbit

View from above orbital plane
View from above orbital plane
View from above satellite
View from above satellite

Ground track
Ground track

The orbit data is extracted from the following two-line orbital elements,

1 29507U 06046C   21059.54652475  .00000771  00000-0  64315-4 0  9992
2 29507  97.7198  86.0576 0049193  23.2546 337.0888 15.00671485783772
Epoch (UTC): 28 February 2021 13:06:59
Eccentricity: 0.0049193
inclination: 97.7198°
perigee height: 530 km
apogee height: 599 km
right ascension of ascending node: 86.0576°
argument of perigee: 23.2546°
revolutions per day: 15.00671485
mean anomaly at epoch: 337.0888°
orbit number at epoch: 78377

The dashed part of the orbit path shows where the satellite is in the earth's shadow,  

DLR